CAPE
0 0 0 0 0 0 0 0 0 0 0 2 0 0 0 0 0 1 0 0 0 5 16 15 22 28 15 19 21 18 17 19 26 20 22 21 38 35 25 22 23 23 20
0 0 0 0 0 0 0 0 0 1 1 2 0 0 0 0 0 1 1 0 1 3 3 10 19 21 33 32 41 27 26 29 30 26 27 24 23 26 30 18 17 14 4
0 0 0 0 0 0 0 0 1 8 5 3 0 0 0 0 0 0 0 0 0 0 0 0 3 25 33 38 19 21 43 49 32 12 18 28 17 12 9 19 18 16 4
0 0 0 0 0 0 0 1 4 7 9 6 6 0 0 0 0 0 0 0 0 0 0 4 15 32 57 59 31 49 59 25 11 11 27 12 28 10 8 27 11 11 5
0 0 0 0 0 0 0 1 2 8 10 4 4 3 0 0 0 0 0 0 5 14 22 39 51 69 19 14 31 38 52 22 21 30 30 15 9 8 24 24 21 15 9
0 0 0 0 0 0 0 0 8 11 13 11 9 5 0 0 0 0 0 0 3 39 32 69 67 71 70 42 15 6 0 15 8 30 34 17 23 9 16 19 23 17 9
0 0 0 0 0 0 0 1 5 11 20 11 6 3 0 0 0 0 0 0 18 65 63 71 42 27 45 31 12 19 38 34 23 26 25 17 10 15 15 16 18 21 11
0 0 0 0 0 0 1 1 10 20 21 20 6 0 0 12 0 0 0 0 52 80 67 66 47 29 9 0 0 27 24 24 34 26 22 24 21 6 8 8 13 12 12
0 0 0 0 0 1 2 7 17 26 11 7 0 0 28 73 57 9 0 35 49 79 70 28 0 11 0 0 0 5 10 16 4 4 0 0 0 0 0 3 9 10 8
0 0 0 0 0 2 2 12 29 9 2 0 0 19 57 77 86 27 0 4 37 54 17 13 0 0 0 0 0 0 11 9 13 23 24 22 20 19 0 0 2 1 1
0 0 0 0 0 3 7 11 9 0 0 0 2 48 90 116 119 0 0 1 11 3 18 20 22 0 0 0 0 12 2 0 11 26 10 4 9 15 9 8 13 1 2
0 0 0 0 0 3 0 0 0 0 0 7 45 66 67 125 0 0 0 0 0 0 7 5 2 0 0 0 0 0 0 0 26 5 5 6 1 1 5 7 2 1 3
0 0 0 0 0 1 0 0 0 0 3 21 48 58 65 65 0 0 0 0 0 0 0 0 0 0 0 0 0 0 0 25 17 13 3 5 12 5 5 19 10 19 12
0 0 0 0 3 0 0 0 4 9 28 32 46 51 56 10 0 4 7 1 1 0 0 5 0 0 1 4 10 16 16 11 6 6 8 4 18 18 9 20 10 11 4
0 0 0 1 0 0 0 2 13 54 15 38 56 40 14 3 0 0 0 0 0 0 0 8 20 5 17 9 8 1 2 3 2 14 13 10 15 10 10 12 15 4 5
0 0 0 0 0 0 4 0 0 0 0 0 0 0 0 0 0 0 0 0 0 0 1 11 17 2 17 9 1 0 3 4 1 3 4 14 11 11 12 10 23 15 12
0 0 0 0 0 1 13 39 0 0 0 0 0 0 0 0 0 0 0 0 0 0 7 6 11 6 24 25 10 16 24 24 0 1 4 2 8 9 17 16 14 20 17
0 0 0 0 1 11 24 36 22 12 1 0 0 0 0 0 0 0 0 0 1 6 3 3 9 4 20 13 7 17 14 0 1 2 2 2 10 23 3 5 7 10 14
0 0 0 0 9 9 18 30 51 30 2 0 0 0 0 0 0 0 0 1 4 3 2 2 5 16 3 4 3 3 0 0 0 8 11 14 8 3 3 8 9 1 0
0 0 0 3 2 6 16 27 30 5 0 0 2 0 0 0 0 0 1 3 3 2 2 2 4 20 0 0 0 0 4 1 2 8 5 17 13 9 9 8 13 6 5
0 0 1 4 1 9 24 30 12 6 1 0 0 0 0 0 0 0 1 2 5 2 1 1 1 7 9 0 0 0 0 4 2 4 5 4 6 4 6 4 5 3 4
0 0 1 4 11 14 23 8 4 0 0 0 0 0 0 0 0 0 1 2 2 0 0 0 0 2 8 3 1 1 0 0 0 0 0 0 0 0 1 1 1 0 1
0 1 6 11 6 0 1 0 0 0 0 0 0 0 0 0 0 0 0 0 0 0 0 0 0 0 0 1 0 0 0 0 0 0 0 0 0 0 0 0 0 0 0
1 6 8 1 0 4 0 0 0 0 0 0 0 0 0 0 0 0 0 0 0 0 0 0 0 0 0 0 0 0 0 0 0 0 0 0 0 0 0 0 0 0 1
21 16 8 0 0 0 0 0 0 0 0 0 0 0 0 0 0 0 0 0 0 0 0 0 0 0 0 0 0 0 0 0 0 0 0 0 0 0 0 0 0 0 0
13 1 0 0 0 0 0 0 0 0 0 0 0 0 0 0 0 0 0 0 0 0 0 0 0 0 0 0 0 0 0 0 0 0 0 0 0 0 0 0 0 0 0
CIN
-0 -0 -0 -0 -0 -0 -0 -0 -0 -0 -0 -1 -0 -0 -0 -0 -0 -1 -0 -0 -1 -0 -0 -1 -2 -1 -2 -2 -1 -2 -3 -3 -1 -2 -3 -2 -5 -5 -1 -1 -1 -2 -1
-0 -0 -0 -0 -0 -0 -0 -0 -0 -1 -0 -1 -0 -0 -0 -0 -0 -0 -1 -0 -1 -1 -1 -2 -1 -2 -2 -0 -0 -2 -1 -3 -2 -1 -3 -2 -1 -3 -5 -2 -4 -2 -3
-0 -0 -0 -0 -0 -0 -0 -0 -1 -1 -0 -1 -0 -0 -0 -0 -0 -0 -0 -0 -0 -0 -0 -0 -2 -1 -3 -1 -3 -4 -3 -2 -2 -5 -3 -3 -5 -9 -10 -2 -2 -1 -3
-0 -0 -0 -0 -0 -0 -0 -1 -1 -1 -0 -0 -1 -0 -0 -0 -0 -0 -0 -0 -0 -0 -8 -19 -9 -2 -1 -1 -3 -3 -3 -3 -3 -8 -3 -1 -1 -5 -2 -2 -1 -1 -1
-0 -0 -0 -0 -0 -0 -0 -0 -1 -1 -1 -2 -0 -0 -0 -0 -0 -0 -0 -0 -12 -11 -6 -1 -2 -4 -27 -39 -18 -4 -2 -2 -3 -3 -2 -4 -3 -3 -1 -2 -1 -2 -2
-0 -0 -0 -0 -0 -0 -0 -0 -1 -0 -1 -0 -0 -0 -1 -0 -0 -0 -0 -0 -29 -6 -4 -2 -2 -5 -2 -17 -20 -36 -2 -11 -2 -2 -3 -3 -3 -3 -2 -1 -1 -1 -0
-0 -0 -0 -0 -0 -0 -0 -1 -1 -1 -0 -1 -1 -0 -0 -0 -0 -0 -0 -0 -39 -7 -2 -2 -5 -1 -8 -3 -4 -6 -11 -20 -22 -3 -1 -2 -2 -2 -1 -1 -1 -1 -0
-0 -0 -0 -0 -0 -2 -1 -1 -1 -1 -1 -1 -1 -0 -0 -8 -0 -0 -0 -12 -34 -2 -2 -1 -1 -1 -3 -0 -0 -2 -3 -2 -3 -2 -1 -1 -1 -1 -2 -0 -0 -0 -1
-0 -0 -0 -0 -0 -3 -2 -1 -1 -1 -0 -0 -0 -0 -9 -2 -15 -70 -0 -52 -3 -1 -2 -6 -0 -6 -0 -0 -0 -1 -2 -2 -6 -20 -14 -0 -0 -0 -0 -0 -0 -0 -0
-0 -0 -0 -0 -0 -2 -1 -1 -1 -1 -1 -0 -0 -9 -8 -14 -18 -96 -0 -48 -2 -2 -7 -17 -0 -0 -0 -0 -0 -0 -1 -1 -1 -1 -1 -1 -2 -1 -1 -0 -1 -0 -0
-0 -0 -0 -0 -1 -1 -1 -1 -0 -0 -0 -0 -3 -6 -4 -3 -14 -0 -0 -4 -3 -2 -3 -2 -16 -0 -0 -0 -0 -2 -2 -0 -1 -1 -1 -0 -1 -1 -1 -0 -0 -0 -0
-0 -0 -0 -0 -0 -2 -1 -0 -0 -0 -0 -6 -8 -7 -2 -1 -0 -0 -0 -0 -0 -0 -3 -2 -0 -0 -0 -0 -0 -0 -0 -0 -0 -1 -1 -0 -0 -0 -0 -0 -0 -0 -0
-0 -0 -0 -0 -0 -1 -0 -0 -0 -0 -2 -2 -1 -0 -1 -2 -24 -0 -0 -0 -0 -0 -0 -0 -0 -0 -0 -0 -0 -0 -1 -0 -2 -2 -0 -0 -2 -1 -0 -1 -0 -0 -2
-0 -0 -0 -3 -1 -0 -0 -0 -1 -3 -3 -2 -0 -2 -2 -1 -0 -0 -3 -0 -0 -0 -0 -5 -0 -0 -2 -18 -8 -0 -0 -3 -1 -0 -2 -0 -2 -4 -2 -0 -1 -0 -0
-0 -0 -0 -2 -0 -0 -0 -7 -3 -14 -12 -26 -2 -4 -0 -2 -0 -0 -0 -0 -0 -0 -0 -1 -2 -10 -2 -1 -1 -0 -0 -0 -0 -0 -2 -5 -2 -1 -1 -3 -2 -8 -0
-0 -0 -0 -0 -0 -0 -2 -0 -0 -0 -0 -0 -0 -0 -0 -0 -0 -0 -0 -0 -0 -0 -1 -3 -2 -5 -1 -2 -1 -0 -1 -0 -0 -0 -2 -4 -9 -8 -1 -1 -2 -1 -0
-0 -0 -0 -0 -0 -1 -1 -1 -0 -0 -0 -0 -0 -0 -0 -0 -0 -0 -0 -0 -0 -0 -2 -3 -2 -6 -1 -1 -0 -0 -0 -1 -0 -0 -2 -17 -16 -13 -2 -1 -1 -1 -0
-0 -0 -0 -0 -1 -3 -3 -2 -1 -15 -1 -0 -0 -0 -0 -0 -0 -0 -0 -0 -1 -8 -3 -2 -3 -4 -1 -1 -1 -0 -1 -0 -0 -0 -2 -1 -10 -1 -1 -2 -1 -1 -0
-0 -0 -0 -2 -2 -7 -3 -3 -1 -2 -1 -0 -0 -0 -0 -0 -0 -0 -0 -1 -2 -1 -2 -3 -2 -2 -1 -0 -0 -0 -0 -0 -0 -1 -1 -1 -1 -1 -1 -1 -1 -1 -0
-0 -0 -0 -4 -2 -3 -2 -2 -2 -3 -0 -1 -3 -0 -0 -0 -0 -0 -2 -2 -3 -3 -3 -2 -3 -2 -0 -0 -0 -0 -1 -0 -1 -1 -2 -1 -2 -3 -2 -1 -2 -2 -1
-0 -0 -2 -2 -2 -3 -1 -3 -1 -2 -1 -0 -0 -0 -0 -0 -0 -0 -3 -3 -2 -2 -1 -3 -3 -1 -1 -0 -0 -0 -0 -1 -0 -1 -1 -2 -1 -2 -2 -2 -3 -3 -4
-0 -0 -2 -3 -3 -2 -3 -2 -1 -2 -0 -0 -0 -0 -0 -0 -0 -0 -1 -2 -1 -1 -0 -0 -0 -2 -2 -1 -1 -1 -0 -0 -0 -1 -0 -0 -1 -1 -3 -3 -3 -3 -3
-0 -3 -1 -2 -3 -0 -2 -4 -0 -0 -0 -0 -0 -0 -0 -0 -0 -0 -0 -1 -0 -0 -0 -0 -0 -0 -0 -0 -0 -0 -0 -0 -0 -0 -0 -0 -0 -0 -0 -1 -0 -0 -0
-3 -2 -4 -0 -0 -4 -2 -0 -0 -0 -0 -0 -0 -0 -0 -0 -0 -0 -0 -0 -0 -0 -0 -0 -0 -0 -0 -0 -0 -0 -0 -0 -0 -0 -0 -0 -0 -0 -0 -0 -0 -0 -2
-2 -2 -2 -0 -0 -0 -0 -0 -0 -0 -0 -0 -0 -0 -0 -0 -0 -0 -0 -0 -0 -0 -0 -0 -0 -0 -0 -0 -0 -0 -0 -0 -0 -0 -0 -0 -0 -0 -0 -0 -0 -0 -0
-2 -1 -0 -0 -0 -0 -0 -0 -0 -0 -0 -0 -0 -0 -0 -0 -0 -0 -0 -0 -0 -0 -0 -0 -0 -0 -0 -0 -0 -0 -0 -0 -0 -0 -0 -0 -0 -0 -0 -0 -0 -0 -0
Wind_Speed
8 8 9 10 11 11 12 13 13 13 12 12 14 15 17 17 14 15 16 18 20 21 23 24 25 25 26 27 28 26 27 27 31 32 32 28 30 27 30 30 32 34 34
8 8 9 10 10 11 11 12 12 13 13 13 13 14 16 16 14 14 15 18 19 21 23 24 25 26 26 25 26 26 28 26 26 31 29 31 28 27 27 28 31 32 32
9 8 8 9 9 9 10 11 11 11 12 12 13 12 14 15 14 13 15 16 18 19 20 22 24 25 25 27 27 28 29 30 28 30 30 28 33 29 28 29 29 31 32
8 8 8 9 9 9 10 10 10 10 10 10 11 11 11 12 13 13 14 15 17 18 19 21 23 23 25 26 27 28 28 31 26 24 28 27 27 27 29 30 33 34 32
7 7 7 8 9 8 9 10 10 10 9 9 10 10 11 10 10 12 13 15 16 17 19 20 18 23 25 23 25 26 29 27 30 30 30 28 29 32 30 32 39 42 31
7 6 7 7 8 8 8 10 10 9 9 9 8 9 9 9 13 10 10 13 14 15 17 21 25 21 22 23 20 21 23 26 29 28 28 31 30 30 30 38 39 36 37
7 6 6 7 7 7 8 9 9 9 9 9 9 8 8 8 9 8 10 12 12 14 18 24 25 27 27 28 26 21 20 17 18 23 25 29 29 29 35 35 34 36 12
7 5 5 6 6 7 8 9 9 9 8 8 9 8 8 8 8 9 12 13 13 15 20 22 24 25 26 27 26 27 29 26 23 23 25 27 27 34 33 26 20 15 14
8 5 5 5 6 7 7 8 8 8 9 9 9 8 8 7 10 12 16 16 15 21 20 22 25 25 28 27 27 30 26 26 23 20 18 21 20 19 16 19 17 22 18
8 5 5 6 6 7 8 9 9 9 9 9 10 9 8 6 8 14 18 16 18 19 19 19 22 25 26 27 28 27 26 26 26 24 25 25 20 26 12 11 15 13 6
8 6 6 6 7 8 9 9 8 8 9 9 9 8 7 7 13 20 18 16 21 21 22 22 23 28 27 26 25 24 26 23 20 23 24 25 27 27 25 19 14 11 2
8 6 6 7 7 9 9 9 9 9 9 9 9 9 7 14 20 19 20 22 22 22 22 24 25 27 26 23 23 27 22 19 19 22 24 28 26 24 5 14 13 2 1
8 6 6 7 8 9 10 10 10 10 10 9 10 12 15 17 17 19 20 21 23 22 24 23 23 22 22 27 26 25 21 22 24 23 27 27 26 26 10 8 10 6 3
7 5 7 8 9 9 10 10 9 10 9 10 12 14 17 17 19 20 20 19 20 20 23 19 22 24 24 27 25 27 25 26 25 23 28 27 27 30 30 13 13 11 24
6 6 7 8 9 10 10 10 10 14 14 13 16 16 18 18 21 23 25 25 24 24 21 22 24 26 26 27 27 27 26 28 28 25 29 27 27 28 28 27 16 15 8
6 7 8 10 10 10 10 11 16 15 15 15 16 18 20 20 20 22 23 24 23 22 21 25 27 27 26 24 24 26 27 28 26 22 24 26 26 24 21 22 13 12 23
6 8 9 10 11 10 11 11 13 16 17 17 18 19 20 19 20 21 21 20 22 21 23 27 28 27 26 23 23 27 28 29 28 17 20 25 26 23 23 22 20 22 23
7 9 11 11 11 11 11 11 11 12 14 15 17 18 19 20 21 21 19 17 19 22 26 28 27 27 27 24 18 23 26 31 5 9 19 24 24 25 22 21 22 23 21
9 11 11 12 11 11 11 11 12 13 14 15 16 16 17 17 17 19 19 23 24 25 26 26 25 26 26 3 4 12 3 13 5 12 19 22 22 22 19 19 23 22 17
10 11 12 12 12 11 11 12 13 14 14 15 17 19 19 16 19 21 22 24 24 25 26 25 24 23 21 18 12 9 2 3 10 17 22 22 21 21 19 21 18 14 14
11 13 12 12 12 12 12 13 13 14 15 17 19 21 20 19 21 22 23 23 24 25 25 24 21 7 18 18 7 4 2 7 7 16 21 21 18 20 18 17 20 16 24
13 13 12 12 12 12 13 13 14 15 16 17 17 19 18 20 22 23 23 24 24 24 24 22 6 3 17 15 7 2 7 9 8 13 17 16 15 16 16 19 18 21 20
12 12 12 13 13 14 13 14 15 16 17 18 18 20 21 22 23 24 24 24 24 23 22 15 2 7 11 1 7 5 2 7 8 8 10 11 14 14 16 15 14 10 21
13 13 14 14 14 14 14 15 16 17 17 18 19 20 21 22 23 24 24 24 24 23 20 4 7 10 4 3 2 7 6 5 6 6 8 9 10 12 10 9 6 11 13
13 14 14 15 15 15 15 15 16 17 18 19 19 20 22 23 24 25 25 25 24 22 11 2 11 10 9 3 4 15 16 10 5 7 8 11 9 9 7 7 6 7 7
14 15 16 16 16 15 16 16 17 18 19 19 20 21 22 23 24 25 26 26 24 20 7 7 13 10 5 5 20 20 12 8 9 11 10 6 5 7 7 9 7 9 11
Wind_Direction
93 74 68 64 57 57 49 48 47 45 45 42 31 27 20 20 27 28 19 11 6 3 0 357 355 355 351 349 348 349 348 345 336 336 338 341 338 338 334 334 332 332 331
98 86 78 71 69 60 51 52 52 44 44 37 32 27 24 25 30 28 22 13 7 2 0 358 355 352 351 352 352 349 346 345 342 338 340 340 341 343 340 337 336 336 334
107 93 81 72 69 60 54 48 51 46 42 39 36 36 32 24 26 26 19 13 9 6 3 359 356 355 353 350 349 347 345 344 343 338 336 340 337 340 341 338 338 338 339
112 98 85 76 70 64 54 50 44 45 45 42 43 41 35 31 28 25 20 14 9 6 1 358 355 354 353 350 348 346 346 342 344 342 339 341 341 344 344 340 337 336 339
119 102 84 79 70 64 53 46 43 46 47 46 45 41 36 33 35 26 19 12 6 2 358 356 354 352 350 349 347 346 345 346 344 340 339 341 341 339 340 339 317 314 340
128 106 84 81 74 63 53 45 43 50 43 43 44 37 35 34 20 23 18 8 4 1 358 356 352 352 356 354 354 353 352 350 345 344 342 340 342 341 339 315 301 332 299
137 112 85 88 72 61 54 45 49 49 46 45 35 39 39 34 28 25 13 4 358 355 355 354 356 354 355 354 356 356 352 351 353 352 348 344 342 344 327 292 331 311 357
147 121 96 91 71 59 50 43 47 46 49 44 37 51 42 35 27 16 5 357 354 356 356 358 357 357 358 358 358 354 351 352 357 353 350 348 347 329 314 345 356 8 9
155 127 98 88 68 56 44 45 52 50 52 46 45 49 38 35 23 12 3 0 358 356 360 1 359 360 360 1 357 353 355 358 1 2 4 1 2 4 13 9 18 6 14
153 124 99 84 62 49 49 44 50 53 49 51 46 42 37 32 21 8 360 359 359 2 2 7 8 5 2 0 358 356 357 358 356 357 359 2 6 343 34 35 21 24 38
141 118 92 69 57 51 49 55 66 63 52 52 44 41 37 27 14 3 8 12 4 2 2 3 5 1 1 0 1 2 359 0 6 1 6 359 316 313 356 13 23 30 221
133 108 80 64 60 63 63 70 71 65 60 54 44 36 35 25 12 16 15 11 8 5 5 4 3 0 2 4 4 0 5 12 9 5 6 312 299 294 298 28 28 35 69
126 99 76 70 72 66 72 72 71 67 61 50 37 31 25 22 23 21 18 14 11 10 8 8 9 10 9 10 9 11 14 7 355 1 351 299 298 349 30 39 36 42 244
119 92 80 81 79 78 81 81 73 67 57 42 35 29 23 25 21 19 18 19 18 15 9 13 10 12 15 12 15 12 7 347 350 5 333 303 301 318 317 28 32 33 290
107 89 84 84 93 83 81 65 64 39 33 36 29 29 20 20 16 14 11 9 9 8 14 15 12 10 9 10 10 8 1 339 330 4 320 302 302 308 309 353 10 28 259
102 96 96 91 88 89 83 67 35 34 36 37 37 26 23 26 25 20 18 17 18 20 18 11 8 7 9 11 10 8 314 348 357 15 295 302 299 293 287 290 269 273 348
98 96 92 89 94 90 91 80 55 42 42 40 34 27 28 29 25 22 21 25 25 22 18 11 10 11 10 11 12 322 316 341 353 27 285 297 300 291 291 289 283 286 286
97 95 97 95 93 94 84 72 63 60 51 44 36 32 30 29 25 22 25 25 24 20 15 13 13 13 11 12 318 293 307 335 324 50 283 294 292 295 289 288 289 286 280
101 101 97 95 94 87 77 62 57 52 48 43 40 36 34 32 34 33 32 22 19 16 16 15 16 16 16 336 257 263 46 279 240 267 283 292 290 289 284 284 290 288 277
99 95 99 95 86 87 71 60 55 51 50 43 34 25 26 31 27 22 22 21 20 18 18 18 19 23 28 33 43 256 83 271 266 279 289 290 285 285 284 288 286 285 280
94 102 91 94 91 80 61 56 54 51 45 38 30 24 26 29 25 24 22 22 21 19 20 20 27 66 36 36 58 69 258 266 272 281 287 286 280 284 284 285 288 283 290
105 100 96 85 79 72 63 59 54 49 44 40 37 34 40 32 26 24 23 22 21 22 23 25 59 70 39 42 57 45 269 275 282 286 286 282 278 281 283 287 286 286 286
97 99 85 77 65 64 65 55 53 49 43 38 36 34 31 28 27 25 24 23 23 24 25 42 207 59 50 301 55 48 346 282 289 299 294 288 284 282 285 286 286 293 8
91 86 79 76 76 65 60 53 48 42 42 40 38 36 32 30 28 26 26 25 25 26 36 236 71 53 40 36 40 47 30 2 312 329 303 295 290 288 291 293 338 15 19
81 76 74 73 73 61 60 57 53 48 44 43 41 37 33 31 29 27 27 27 28 33 65 128 58 47 43 2 47 287 288 287 324 330 312 294 294 292 304 315 320 315 359
79 78 76 71 64 61 57 56 54 51 47 46 41 36 34 32 30 30 29 30 33 42 263 73 51 44 29 47 302 299 291 299 302 300 305 319 318 313 313 299 321 12 22